Starlink 30252

operational
NORAD ID: 57607 Int'l Des: 2023-119 Owner: SPXS Country: US Constellation: starlink
LEOCIRCULAR

Starlink 30252について

説明を読み込み中...

リアルタイム位置

3D地球を読み込み中...

次回通過

高度履歴

Altitude vs Time

uPlot chart will show altitude changes over time

軌道要素

1 57607U 23119F 25304.59653154 -.00020544 00000-0 -15062-2 0 9996
2 57607 43.0039 50.6087 0001414 289.1203 70.9486 15.02634664123813
Epoch: Oct 31, 2025 • Age: 10 hours

現在のステータス

高度 557.9 km
速度 7.58 km/s
衛星直下点 4.42°N, 13.87°E
打ち上げ日 Aug 11, 2023
運用期間 2.2 years
タイプ internet

技術仕様

分類 Payload
質量 730.00 kg
乾燥質量 700.00 kg
総質量 730.00 kg
長さ 0.30 m
直径 4.10 m
スパン 29.00 m
形状 Box + pan
製造者 SPXS
バスタイプ Starlink V2M
フェーズステータス In Orbit
所有者/国 SPXS/US

大規模コンステレーション

Loading constellations...